• en France
  • Liste des pays
  • À 7 jours
  • Température de l'eau
  • Carte satellitaire
  • Carte météo
  • Widgets météo
  • user-avatar
    Se connecter

    Météo par heure à Florencia

    Ce jour, 20 Février, Mardi

    Heure Température Précipitation Vent Pression Humidité
    00:00 +26°C° 0,8 mm 1 m/s 732 mmHg 89%
    01:00 +26°C° 0,8 mm 1 m/s 732 mmHg 89%
    02:00 +25°C° 0,5 mm 1 m/s 732 mmHg 89%
    03:00 +25°C° 0,5 mm 1 m/s 731 mmHg 89%
    04:00 +25°C° 0,5 mm 1 m/s 731 mmHg 89%
    05:00 +23°C° 0,2 mm 0 m/s 732 mmHg 88%
    06:00 +23°C° 0,2 mm 0 m/s 732 mmHg 88%
    07:00 +23°C° 0,2 mm 0 m/s 732 mmHg 87%
    08:00 +26°C° 0,1 mm 0 m/s 733 mmHg 78%
    09:00 +30°C° 0,1 mm 1 m/s 733 mmHg 70%
    10:00 +32°C° 0,1 mm 1 m/s 734 mmHg 61%
    11:00 +33°C° 0,3 mm 1 m/s 733 mmHg 57%
    12:00 +34°C° 0,3 mm 1 m/s 732 mmHg 54%
    13:00 +35°C° 0,3 mm 1 m/s 732 mmHg 50%
    14:00 +35°C° 0,4 mm 1 m/s 731 mmHg 50%
    15:00 +34°C° 0,4 mm 1 m/s 730 mmHg 50%
    16:00 +34°C° 0,4 mm 1 m/s 730 mmHg 50%
    17:00 +32°C° 0,5 mm 1 m/s 730 mmHg 57%
    18:00 +28°C° 0,5 mm 0 m/s 730 mmHg 65%
    19:00 +26°C° 0,5 mm 0 m/s 731 mmHg 72%
    20:00 +26°C° 0,5 mm 0 m/s 731 mmHg 74%
    21:00 +25°C° 0,5 mm 0 m/s 732 mmHg 75%
    22:00 +27°C° 0,5 mm 1 m/s 733 mmHg 77%
    23:00 +26°C° 0,1 mm 1 m/s 733 mmHg 78%

    Demain, 21 Février, Mercredi

    Heure Température Précipitation Vent Pression Humidité
    00:00 +26°C° 0,1 mm 1 m/s 733 mmHg 79%
    01:00 +26°C° 0,1 mm 1 m/s 733 mmHg 80%
    02:00 +25°C° 0 mm 1 m/s 732 mmHg 81%
    03:00 +25°C° 0 mm 1 m/s 732 mmHg 82%
    04:00 +25°C° 0 mm 1 m/s 732 mmHg 83%
    05:00 +25°C° 0 mm 1 m/s 732 mmHg 82%
    06:00 +25°C° 0 mm 1 m/s 733 mmHg 81%
    07:00 +25°C° 0 mm 1 m/s 733 mmHg 80%
    08:00 +28°C° 0 mm 1 m/s 733 mmHg 69%
    09:00 +31°C° 0 mm 1 m/s 734 mmHg 58%
    10:00 +34°C° 0 mm 1 m/s 734 mmHg 47%
    11:00 +34°C° 0,1 mm 1 m/s 733 mmHg 46%
    12:00 +35°C° 0,1 mm 1 m/s 733 mmHg 45%
    13:00 +36°C° 0,1 mm 1 m/s 732 mmHg 43%
    14:00 +35°C° 0,3 mm 1 m/s 731 mmHg 45%
    15:00 +35°C° 0,3 mm 1 m/s 730 mmHg 46%
    16:00 +35°C° 0,3 mm 1 m/s 729 mmHg 47%
    17:00 +33°C° 0,3 mm 1 m/s 730 mmHg 54%
    18:00 +29°C° 0,3 mm 0 m/s 730 mmHg 61%
    19:00 +26°C° 0,3 mm 0 m/s 731 mmHg 68%
    20:00 +26°C° 0,3 mm 0 m/s 731 mmHg 70%
    21:00 +25°C° 0,3 mm 0 m/s 732 mmHg 72%
    22:00 +27°C° 0,3 mm 1 m/s 733 mmHg 74%
    23:00 +26°C° 0,2 mm 1 m/s 733 mmHg 75%

    Après-demain, 22 Février, Jeudi

    Heure Température Précipitation Vent Pression Humidité
    00:00 +26°C° 0,2 mm 1 m/s 733 mmHg 77%
    01:00 +26°C° 0,2 mm 1 m/s 733 mmHg 78%
    02:00 +25°C° 0,2 mm 1 m/s 732 mmHg 79%
    03:00 +25°C° 0,2 mm 1 m/s 732 mmHg 79%
    04:00 +25°C° 0,2 mm 1 m/s 732 mmHg 80%
    05:00 +25°C° 0,1 mm 1 m/s 732 mmHg 79%
    06:00 +25°C° 0,1 mm 1 m/s 733 mmHg 78%
    07:00 +25°C° 0,1 mm 1 m/s 733 mmHg 78%
    08:00 +28°C° 0 mm 1 m/s 734 mmHg 67%
    09:00 +31°C° 0 mm 1 m/s 734 mmHg 55%
    10:00 +35°C° 0 mm 1 m/s 734 mmHg 44%
    11:00 +35°C° 0 mm 1 m/s 733 mmHg 42%
    12:00 +36°C° 0 mm 1 m/s 733 mmHg 41%
    13:00 +37°C° 0 mm 1 m/s 732 mmHg 39%
    14:00 +36°C° 0,4 mm 1 m/s 731 mmHg 41%
    15:00 +36°C° 0,4 mm 1 m/s 730 mmHg 44%
    16:00 +35°C° 0,4 mm 1 m/s 729 mmHg 46%
    17:00 +33°C° 0,4 mm 1 m/s 729 mmHg 53%
    18:00 +31°C° 0,4 mm 1 m/s 730 mmHg 60%
    19:00 +27°C° 0,4 mm 0 m/s 730 mmHg 68%
    20:00 +26°C° 0,7 mm 0 m/s 731 mmHg 70%
    21:00 +28°C° 0,7 mm 1 m/s 732 mmHg 72%
    22:00 +27°C° 0,7 mm 1 m/s 733 mmHg 74%
    23:00 +27°C° 0,1 mm 1 m/s 733 mmHg 76%

    23 Février, Vendredi

    Heure Température Précipitation Vent Pression Humidité
    00:00 +26°C° 0,1 mm 1 m/s 732 mmHg 77%
    01:00 +26°C° 0,1 mm 1 m/s 732 mmHg 79%
    02:00 +25°C° 0,2 mm 1 m/s 732 mmHg 79%
    03:00 +25°C° 0,2 mm 1 m/s 732 mmHg 80%
    04:00 +25°C° 0,2 mm 1 m/s 732 mmHg 80%
    05:00 +25°C° 0,2 mm 1 m/s 732 mmHg 79%
    06:00 +25°C° 0,2 mm 1 m/s 733 mmHg 78%
    07:00 +25°C° 0,2 mm 1 m/s 733 mmHg 78%
    08:00 +28°C° 0 mm 1 m/s 733 mmHg 67%
    09:00 +31°C° 0 mm 1 m/s 734 mmHg 55%
    10:00 +35°C° 0 mm 1 m/s 734 mmHg 44%
    11:00 +35°C° 0,1 mm 1 m/s 733 mmHg 44%
    12:00 +36°C° 0,1 mm 1 m/s 732 mmHg 43%
    13:00 +36°C° 0,1 mm 1 m/s 731 mmHg 42%
    14:00 +36°C° 0,3 mm 1 m/s 730 mmHg 44%
    15:00 +35°C° 0,3 mm 1 m/s 729 mmHg 46%
    16:00 +34°C° 0,3 mm 1 m/s 728 mmHg 48%
    17:00 +32°C° 0,2 mm 1 m/s 729 mmHg 55%
    18:00 +29°C° 0,2 mm 0 m/s 729 mmHg 61%
    19:00 +27°C° 0,2 mm 0 m/s 730 mmHg 68%
    20:00 +26°C° 0,3 mm 0 m/s 731 mmHg 69%
    21:00 +26°C° 0,3 mm 0 m/s 731 mmHg 71%
    22:00 +28°C° 0,3 mm 1 m/s 732 mmHg 73%
    23:00 +27°C° 0,4 mm 1 m/s 732 mmHg 74%

    24 Février, Samedi

    Heure Température Précipitation Vent Pression Humidité
    00:00 +27°C° 0,4 mm 1 m/s 732 mmHg 75%
    01:00 +26°C° 0,4 mm 1 m/s 732 mmHg 76%
    02:00 +26°C° 0,3 mm 1 m/s 731 mmHg 77%
    03:00 +26°C° 0,3 mm 1 m/s 731 mmHg 78%
    04:00 +25°C° 0,3 mm 1 m/s 731 mmHg 78%
    05:00 +25°C° 0,2 mm 1 m/s 731 mmHg 78%
    06:00 +25°C° 0,2 mm 1 m/s 732 mmHg 77%
    07:00 +25°C° 0,2 mm 1 m/s 733 mmHg 76%
    08:00 +29°C° 0,1 mm 1 m/s 733 mmHg 65%
    09:00 +32°C° 0,1 mm 1 m/s 733 mmHg 53%
    10:00 +35°C° 0,1 mm 1 m/s 733 mmHg 42%
    11:00 +36°C° 0,2 mm 1 m/s 732 mmHg 42%
    12:00 +36°C° 0,2 mm 1 m/s 731 mmHg 41%
    13:00 +37°C° 0,2 mm 1 m/s 731 mmHg 40%
    14:00 +36°C° 0,3 mm 1 m/s 730 mmHg 41%
    15:00 +36°C° 0,3 mm 1 m/s 729 mmHg 42%
    16:00 +36°C° 0,3 mm 1 m/s 728 mmHg 43%
    17:00 +33°C° 0,2 mm 1 m/s 729 mmHg 50%
    18:00 +31°C° 0,2 mm 1 m/s 729 mmHg 56%
    19:00 +27°C° 0,2 mm 0 m/s 730 mmHg 63%
    20:00 +28°C° 0,4 mm 1 m/s 731 mmHg 65%
    21:00 +28°C° 0,4 mm 1 m/s 731 mmHg 68%
    22:00 +27°C° 0,4 mm 1 m/s 732 mmHg 70%
    23:00 +27°C° 0,1 mm 1 m/s 732 mmHg 70%

    25 Février, Dimanche

    Heure Température Précipitation Vent Pression Humidité
    00:00 +26°C° 0,1 mm 1 m/s 732 mmHg 71%
    01:00 +26°C° 0,1 mm 1 m/s 731 mmHg 72%
    02:00 +26°C° 0,2 mm 1 m/s 731 mmHg 72%
    03:00 +25°C° 0,2 mm 1 m/s 731 mmHg 72%
    04:00 +25°C° 0,2 mm 1 m/s 731 mmHg 72%
    05:00 +25°C° 0 mm 1 m/s 732 mmHg 71%
    06:00 +25°C° 0 mm 1 m/s 732 mmHg 70%
    07:00 +25°C° 0 mm 1 m/s 733 mmHg 69%
    08:00 +28°C° 0 mm 1 m/s 733 mmHg 59%
    09:00 +32°C° 0 mm 1 m/s 733 mmHg 49%
    10:00 +35°C° 0 mm 1 m/s 733 mmHg 39%
    11:00 +36°C° 0,2 mm 1 m/s 732 mmHg 39%
    12:00 +36°C° 0,2 mm 1 m/s 732 mmHg 38%
    13:00 +37°C° 0,2 mm 1 m/s 731 mmHg 38%
    14:00 +36°C° 0,3 mm 1 m/s 730 mmHg 40%
    15:00 +36°C° 0,3 mm 1 m/s 729 mmHg 43%
    16:00 +35°C° 0,3 mm 1 m/s 729 mmHg 45%
    17:00 +33°C° 0,2 mm 1 m/s 729 mmHg 51%
    18:00 +31°C° 0,2 mm 1 m/s 730 mmHg 56%
    19:00 +30°C° 0,2 mm 1 m/s 730 mmHg 62%
    20:00 +29°C° 0,9 mm 1 m/s 731 mmHg 67%
    21:00 +28°C° 0,9 mm 1 m/s 731 mmHg 72%
    22:00 +27°C° 0,9 mm 1 m/s 732 mmHg 77%
    23:00 +26°C° 0,6 mm 1 m/s 732 mmHg 79%
    Voir plus